Location: Unspecified
(56.5167°N, 0.0000°E)
Time: 07:00:49
(UTC+02:00)

Okean 3 - Visible Passes

Search period start: 25 September 2018 00:00
Search period end: 05 October 2018 00:00
Orbit: 576 x 603 km, 82.5° (Epoch: 24 September)

Date Brightness Start Highest point End Pass type
(mag) Time Alt. Az. Time Alt. Az. Time Alt. Az.
25 Sep 6.3 04:40:39 10° ESE 04:43:04 15° E 04:45:29 10° NE visible
25 Sep 3.4 06:15:29 10° SSW 06:19:44 85° WNW 06:23:58 10° NNE visible
26 Sep 5.9 04:47:51 10° SE 04:50:56 20° E 04:54:01 10° NE visible
26 Sep 3.4 06:23:37 10° SSW 06:27:48 62° WNW 06:31:59 10° N visible
27 Sep 5.4 04:55:32 11° SE 04:58:50 26° E 05:02:22 10° NNE visible
27 Sep 3.8 06:32:06 11° SW 06:35:54 45° WNW 06:39:59 10° N visible
28 Sep 4.9 05:04:12 18° SSE 05:06:46 35° E 05:10:37 10° NNE visible
28 Sep 4.2 06:40:47 13° SW 06:44:03 34° WNW 06:47:54 10° N visible
29 Sep 4.3 05:12:49 27° SSE 05:14:44 48° E 05:18:47 10° NNE visible
29 Sep 4.5 06:49:23 14° WSW 06:52:13 26° WNW 06:55:47 10° N visible
30 Sep 6.4 03:45:32 10° E 03:46:19 10° ENE 03:47:05 10° ENE visible
30 Sep 3.7 05:21:21 40° SSE 05:22:43 67° E 05:26:54 10° NNE visible
30 Sep 4.9 06:57:56 13° WSW 07:00:26 20° WNW 07:03:36 10° NNW visible
01 Oct 6.1 03:53:17 13° E 03:54:08 14° E 03:56:22 10° NE visible
01 Oct 3.3 05:29:51 55° SSW 05:30:45 89° WNW 05:34:58 10° NNE visible
01 Oct 5.2 07:06:25 11° W 07:08:41 16° WNW 07:11:18 10° NNW visible
02 Oct 5.8 04:01:44 19° E 04:01:59 19° E 04:04:57 10° NE visible
02 Oct 3.4 05:38:18 59° WSW 05:38:49 65° WNW 05:43:01 10° N visible
02 Oct 5.4 07:15:10 10° WNW 07:16:58 12° NW 07:18:46 10° NNW visible
03 Oct 5.4 04:10:09 25° E 04:10:09 25° E 04:13:19 10° NNE visible
03 Oct 3.7 05:46:43 47° W 05:46:55 48° WNW 05:51:00 10° N visible
04 Oct 5.1 04:18:31 31° ENE 04:18:31 31° ENE 04:21:35 10° NNE visible
04 Oct 4.1 05:55:05 35° WNW 05:55:05 35° WNW 05:58:56 10° N visible
